Location: Unspecified
(0.0000°N, 0.0000°E)
Time: 10:22:47
(UTC+00:00)

Explorer 11/Cluster Stage 4 - Pass Details

Date: 07 November 2024
Orbit: 464 x 1202 km, 28.8° (Epoch: 05 December)

Event Time Altitude Azimuth Distance (km) Brightness Sun altitude
Exits shadow 04:49:06 12° 330° (NNW) 1,652 7.8 -13.1°
Drops below altitude 10° 04:50:32 10° 352° (N) 1,728 8.1 -12.7°
Sets 04:53:53 0° 25° (NNE) 2,520 9.3 -11.9°
